Regional Weather Roundup
Issued by NWS

Home | Current Version | Previous Version | Graphics & Text | Print | Product List | Glossary On
Versions: 1 2 3 4 5 6 7 8 9 10 11 12 13 14 15 16 17 18 19 20 21 22 23 24 25 26 27 28 29 30 31 32 33 34 35 36 37 38 39 40 41 42 43 44 45 46 47 48 49 50
000
ASUS43 KMPX 221401
RWRMN
WEATHER ROUNDUP FOR MINNESOTA
NATIONAL WEATHER SERVICE TWIN CITIES/CHANHASSEN MN
800 AM CST MON JAN 22 2018


NOTE: "FAIR" INDICATES FEW OR NO CLOUDS BELOW 12,000 FEET WITH NO
SIGNIFICANT WEATHER AND/OR OBSTRUCTIONS TO VISIBILITY. N/A MEANS
CURRENT SKY AND/OR WEATHER CONDITIONS ARE NOT AVAILABLE.

MNZ060>063-068>070-221500-
   Twin Cities Metro

CITY           SKY/WX    TMP DP  RH WIND       PRES   REMARKS
TWIN CITIES    CLOUDY    32  29  88 N17G24    29.78F WCI  21
ST PAUL        CLOUDY    32  28  85 NE10G21   29.80F WCI  24
CRYSTAL        CLOUDY    31  24  75 N14G23    29.80F WCI  21
BLAINE         CLOUDY    32  28  86 N18G25    29.80F WCI  20
LAKEVILLE      LGT SNOW  30  30 100 NE14G22   29.74F WCI  20
EDEN PRAIRIE   CLOUDY    32  27  81 NE15G26   29.75F WCI  22
SOUTH ST PAUL  CLOUDY    33  28  81 N9        29.77F WCI  25
LAKE ELMO      CLOUDY    32  28  86 NE16G23   29.79F WCI  21
$$
MNZ001>005-007-008-013>017-022>024-027-028-221500-
   Northwest Minnesota

CITY           SKY/WX    TMP DP  RH WIND       PRES   REMARKS
BEMIDJI        CLOUDY    25  24  98 NE8       30.00S WCI  16
HALLOCK        CLOUDY    25  19  80 NE5       30.09F WCI  19
ROSEAU         CLOUDY    23  19  86 NE9       30.08R WCI  13
WARROAD        CLOUDY    21  18  86 N8        30.08S WCI  12
CROOKSTON      MOCLDY    25  21  86 N9        30.08R WCI  15
FOSSTON        CLOUDY    23  21  93 N8        30.03S FOG     WCI  14
DETROIT LAKES  CLOUDY    27  27 100 NE8       29.99R WCI  18
MOORHEAD       CLOUDY    27  23  86 N13       30.01F WCI  16
PARK RAPIDS    CLOUDY    26  23  88 NE7       29.96S WCI  18
MAHNOMEN       CLOUDY    26  23  89 NE12      30.00F WCI  15
$$
MNZ006-009>011-018-025>026-221500-
   North Central Minnesota

CITY           SKY/WX    TMP DP  RH WIND       PRES   REMARKS
BAUDETTE       CLOUDY    21  19  92 NE10      30.07R WCI  10
FLAG ISLAND    CLOUDY    18  16  93 N12       30.09F WCI   5
INTL FALLS     CLOUDY    19  16  88 NE7       30.08S WCI  10
WASKISH        CLOUDY    23  21  93 NE3       30.05F
BIG FORK       CLOUDY    25  21  86 N5        30.03S WCI  19
LONGVILLE      CLOUDY    27  23  86 NE8       29.99R WCI  18
GRAND RAPIDS   CLOUDY    26  22  84 NE6       30.01S WCI  19
CRANE LAKE     CLOUDY    16  14  93 NE3       30.10R
ORR            CLOUDY    18  16  93 CALM      30.02S
COOK           CLOUDY    21  19  93 N5        30.03F WCI  15
WALKER         CLOUDY    25  24  94 NE7       29.99S WCI  17
$$
MNZ012-019>021-037-221500-
   Northeast Minnesota

CITY           SKY/WX    TMP DP  RH WIND       PRES   REMARKS
DULUTH         SNOW      24  22  91 E20       29.97S VSB 1/2 WCI  10
HIBBING        CLOUDY    24  22  91 NE7       29.99F WCI  16
EVELETH        CLOUDY    22  19  88 NE6       30.01R WCI  15
DULUTH HARBOR  MIX PCPN  28  27  93 NE28G35   30.01S WCI  13
TWO HARBORS    CLOUDY    27  21  80 NE12G17   29.99S HAZE    WCI  16
SILVER BAY     CLOUDY    21  21 100 NE10G16   30.01F WCI  10
GRAND MARAIS     N/A     22  15  75 NE7       30.09S WCI  13
G MARAIS ARPRT CLOUDY    14  10  85 N13       30.00S WCI   0
$$
MNZ029>031-032-039>041-046>048-054>057-064-221500-
   West Central Minnesota

CITY           SKY/WX    TMP DP  RH WIND       PRES   REMARKS
FERGUS FALLS   CLOUDY    25  25 100 NE10G16   29.96S WCI  15
WHEATON        CLOUDY    25  23  93 N13G20    29.97F WCI  13
MORRIS         CLOUDY    27  25  93 N15G22    29.89F FOG     WCI  15
ALEXANDRIA     CLOUDY    27  25  92 NE17G26   29.88F WCI  14
ELBOW LAKE     CLOUDY    25  24  96 NE16      29.93F FOG     WCI  12
WADENA         CLOUDY    25  25 100 NE10G16   29.93F WCI  15
GLENWOOD       CLOUDY    27  27 100 N17       29.87S WCI  14
APPLETON       CLOUDY    28  25  86 N18       29.87F WCI  16
BENSON         CLOUDY    28  27  93 NE17G23   29.88S WCI  16
ORTONVILLE     CLOUDY    25  23  93 N22G29    29.90S WCI  10
MADISON        CLOUDY    28  28 100 N23       29.87F WCI  14
WILLMAR        CLOUDY    28  27  93 NE15G26   29.84F WCI  17
$$
MNZ033>034-036-042>043-049>051-058-059-221500-
   Central Minnesota

CITY           SKY/WX    TMP DP  RH WIND       PRES   REMARKS
ST CLOUD       CLOUDY    29  26  89 NE15G24   29.85F WCI  18
SAUK CENTRE      N/A     27  24  87 N16G23    29.87F WCI  15
PAYNESVILLE    CLOUDY    28  27  94 NE14G26   29.84F WCI  17
AITKIN         CLOUDY    25  21  86 NE10G20   29.95R WCI  15
PINE RIVER     CLOUDY    25  19  80 NE9       30.00S WCI  15
BRAINERD       CLOUDY    27  22  81 NE21G26   29.95S WCI  13
STAPLES        CLOUDY    25  25 100 NE9G20    29.93F WCI  15
LONG PRAIRIE   CLOUDY    27  25  93 N15G24    29.89F WCI  15
LITTLE FALLS   CLOUDY    28  21  74 N7        29.90F WCI  21
LITCHFIELD     CLOUDY    30  28  93 NE21G29   29.81F WCI  17
BUFFALO        CLOUDY    30  26  84 N17G23    29.82F WCI  18
MAPLE LAKE     CLOUDY    31  28  88 MISG      29.84F
HUTCHINSON     CLOUDY    31  28  90 N23       29.77F WCI  18
$$
MNZ037-044-045-052-053-221500-
   East Central Minnesota

CITY           SKY/WX    TMP DP  RH WIND       PRES   REMARKS
PRINCETON      CLOUDY    30  27  86 N13G23    29.86F WCI  20
MORA           CLOUDY    28  25  86 NE10      29.90F WCI  19
CAMBRIDGE      CLOUDY    30  23  74 N10G18    29.85F WCI  21
RUSH CITY      CLOUDY    29  25  84 NE16G23   29.87F WCI  18
MOOSE LAKE     CLOUDY    28  25  86 NE12G20   29.93S WCI  18
HINCKLEY       CLOUDY    30  27  86 NE13G26   29.91S WCI  20
CLOQUET        LGT SNOW  25  21  86 NE16G24   29.96S WCI  12
MCGREGOR       CLOUDY    27  23  86 NE8       29.97R WCI  18
$$
MNZ071>073-080-081-089-090-097-098-221500-
   Southwest Minnesota

CITY           SKY/WX    TMP DP  RH WIND       PRES   REMARKS
MONTEVIDEO     CLOUDY    28  28 100 NE17      29.84F WCI  16
GRANITE FALLS  CLOUDY    31  28  91 N18G24    29.82F WCI  19
CANBY          CLOUDY    27  26  97 N18       29.87S FOG     WCI  14
MARSHALL       CLOUDY    26  25  96 N20       29.80F FOG     WCI  12
REDWOOD FALLS  CLOUDY    30  27  88 N13G31    29.77F WCI  20
OLIVIA         CLOUDY    30  28  93 N20G28    29.78F WCI  18
PIPESTONE      CLOUDY    25  21  86 NE25G32   29.70F WCI   9
WINDOM         HVY SNOW  30  18  59 N25G35    29.67S VSB 1/4 WCI  16
WORTHINGTON    HVY SNOW  28  27  96 N29G36    29.62F VSB 1/4 WCI  12
JACKSON        CLOUDY    30  30 100 N35G43    29.61F VSB 1/2 WCI  14
TRACY          CLOUDY    29  29 100 N22       29.75S FOG     WCI  15
SLAYTON        CLOUDY    26  25  97 N26G36    29.70S WCI  10
$$
MNZ065>067-074>077-082>085-091>093-221500-
   South Central Minnesota

CITY           SKY/WX    TMP DP  RH WIND       PRES   REMARKS
MANKATO        LGT SNOW  32  30  92 NE25G31   29.67F VSB 1   WCI  19
NEW ULM        LGT SNOW  30  28  93 NE17G24   29.72F WCI  18
ST JAMES       LGT SNOW  30  30 100 N23G31    29.69F VSB 3/4 WCI  17
FAIRMONT       LGT SNOW  32  31  96 N25G36    29.59F VSB 3/4 WCI  19
FARIBAULT      LGT SNOW  32  30  93 N15G22    29.69F VSB 1   WCI  22
OWATONNA         N/A     34  30  86 N22G29    29.63F WCI  22
WASECA         LGT SNOW  32  30  93 N24G37    29.64F VSB 3/4 WCI  19
ALBERT LEA     LGT SNOW  34  32  93 NE25G36   29.57F WCI  21
$$
MNZ078>079-086>088-094>096-221500-
   Southeast Minnesota

CITY           SKY/WX    TMP DP  RH WIND       PRES   REMARKS
ROCHESTER      LGT SNOW  32  32 100 NE25G33   29.62F FOG     WCI  19
RED WING       FLURRIES  36  27  69 NE12G18   29.73F
STANTON        LGT SNOW  33  31  92 NE22G28   29.71F WCI  21
DODGE CENTER   LGT SNOW  32  30  93 NE18G30   29.62F WCI  20
WINONA         LGT SNOW  34  32  93 NE7       29.68F WCI  28
PRESTON        LGT RAIN  33  32  96 NE20      29.60F WCI  21
$$
ABBREVIATIONS USED IN REMARKS
   TC - TEMPERATURES IN CELSIUS
  WCI - WIND CHILL INDEX
   HX - HEAT INDEX
  VSB - VISIBILITY
$$




USA.gov is the U.S. government's official web portal to all federal, state and local government web resources and services.